Regional Weather Roundup
Issued by NWS

Home | Current Version | Previous Version | Graphics & Text | Print | Product List | Glossary On
Versions: 1 2 3 4 5 6 7 8 9 10 11 12 13 14 15 16 17 18 19 20 21 22 23 24 25 26 27 28 29 30 31 32 33 34 35 36 37 38 39 40 41 42 43 44 45 46 47 48 49 50
738
ASUS44 KLIX 261305
RWRLA
LOUISIANA WEATHER ROUNDUP
NATIONAL WEATHER SERVICE NEW ORLEANS LA
700 AM CST WED NOV 26 2014

NOTE: "FAIR" INDICATES FEW OR NO CLOUDS BELOW 12,000 FEET WITH NO
      SIGNIFICANT WEATHER AND/OR OBSTRUCTIONS TO VISIBILITY.
      SKY/WX - SKY CONDITION AND SIGNIFICANT WEATHER.
      TMP - AIR TEMPERATURE.    DP   - DEWPOINT TEMPERATURE.
      RH  - RELATIVE HUMIDITY.  PRES - PRESSURE.
      HX  - HEAT INDEX.         WCI  - WIND CHILL INDEX.

*  THESE STATIONS ARE NOT NWS OR FAA STATIONS AND ARE NOT UNDER
   NWS QUALITY CONTROL.

LAZ040-048-061>063-065-066-069-261400-
SOUTHEAST LOUISIANA

CITY           SKY/WX    TMP DP  RH WIND       PRES   REMARKS
N.O. AUDUBON     N/A     41  38  89 MISG        N/A
N.O. INTL ARPT PTCLDY    39  36  89 S3        30.26R
N.O. LAKEFRONT CLEAR     42  35  76 S6        30.27R
N.O. DOWNTOWN* FAIR      45  34  65 S5        30.27R
SLIDELL        CLEAR     31  28  89 CALM      30.25R
BATON ROUGE    CLEAR     33  31  92 CALM      30.25R
BOOTHVILLE     CLEAR     48  37  65 NW5       30.27R
BELLE CHASSE   CLEAR     34  31  88 S3        30.26R
BOGALUSA*        N/A     31  29  90 CALM      30.26R
NEW ROADS*     FAIR      32  31  98 CALM      30.25R
GONZALES*      FAIR      32  32 100 CALM      30.25R
HAMMOND*       CLEAR     32  30  93 CALM      30.27R
HOUMA*         NOT AVBL
PORT FOURCHON* SUNNY     46  41  81 CALM      30.30

$$

LAZ041-044-053-054-261400-
SOUTHWEST LOUISIANA

CITY           SKY/WX    TMP DP  RH WIND       PRES   REMARKS
LAKE CHARLES   CLEAR     39  38  96 CALM      30.22R
LAFAYETTE      CLEAR     38  37  97 CALM      30.24R FOG
PATTERSON      FAIR      34  32  93 CALM      30.27R
SALT POINT       N/A     53  45  74 CALM      30.25R
NEW IBERIA     CLEAR     35  32  88 SE3       30.26R
CHENAULT AIRPK CLEAR     37  37 100 CALM      30.23R

$$

LAZ027-028-261400-
CENTRAL LOUISIANA

CITY           SKY/WX    TMP DP  RH WIND       PRES   REMARKS
FORT POLK      CLEAR     41  38  90 S6        30.20R
ALEXANDRIA INT CLEAR     43  38  82 SW10      30.19R
ALEXANDRIA     CLEAR     32  30  92 CALM      30.20R

$$

LAZ001-002-261400-
NORTHWEST LOUISIANA

CITY           SKY/WX    TMP DP  RH WIND       PRES   REMARKS
SHREVEPORT     PTCLDY    45  33  63 S8        30.11R
BARKSDALE AFB  PTCLDY    36  32  85 S8        30.11S WCI  30
DTN SHREVEPORT PTCLDY    46  31  55 SW9       30.11S

$$

LAZ014-016-261400-
NORTHEAST LOUISIANA

CITY           SKY/WX    TMP DP  RH WIND       PRES   REMARKS
MONROE         CLEAR     36  33  89 S6        30.17R WCI  31
TALLULAH       CLEAR     30  28  92 CALM      30.21R

$$




USA.gov is the U.S. government's official web portal to all federal, state and local government web resources and services.